Retour au catalogue

IRIDE-MS1-EAG2-9

ActifScienceSSO
NORAD 68449·PAYLOAD·🇮🇹 Italy

Lancé Mar 30, 2026 depuis Vandenberg Space Force Base

Loading…

Prochains Passages (prochaines 24 heures)

TLE

FraisSource: Space-Track

Époque: Sep 14, 2026, 07:42 UTC

1 68449U 26067AK  26257.32116815  .00005318  00000-0  25711-3 0  9997
2 68449  97.4605 214.4512 0005908 107.7627 252.4253 15.19025598 25460

Suivez IRIDE-MS1-EAG2-9 en temps réel avec AllMySat

Download on the App Store